Retour au catalogue

FENGYUN 1C DEB

ActifPO
NORAD 40695·DEBRIS·🇨🇳 China

Lancé May 10, 1999 depuis Taiyuan Satellite Launch Center

Loading…

Prochains Passages (prochaines 24 heures)

TLE

VieillissantSource: Space-Track

Époque: Sep 10, 2026, 16:38 UTC

1 40695U 99025EXB 26253.69333022  .00000898  00000-0  14672-3 0  9993
2 40695  99.4616  50.6365 0277377 245.2909 111.9178 14.51903622358119

Suivez FENGYUN 1C DEB en temps réel avec AllMySat

Download on the App Store